Satellite: NOAA-11
Catalog number: 19531
Epoch time:      06180.17078999
Element set:     174
Inclination:      098.8280 deg
RA of node:       268.4580 deg
Eccentricity:    0.0011140
Arg of perigee:   319.2144 deg
Mean anomaly:     040.8213 deg
Mean motion:   14.14809453 rev/day
Decay rate:       -5.6e-07 rev/day^2
Epoch rev:           91623
Checksum:              298

Satellite: NOAA-12
Catalog number: 21263
Epoch time:      06180.31881702
Element set:     669
Inclination:      098.7281 deg
RA of node:       173.5512 deg
Eccentricity:    0.0013748
Arg of perigee:   054.8997 deg
Mean anomaly:     305.3480 deg
Mean motion:   14.25485606 rev/day
Decay rate:      -1.55e-06 rev/day^2
Epoch rev:           78597
Checksum:              329

Satellite: MET-3/5
Catalog number: 21655
Epoch time:      06179.91329551
Element set:    0124
Inclination:      082.5543 deg
RA of node:       252.5035 deg
Eccentricity:    0.0013881
Arg of perigee:   017.2711 deg
Mean anomaly:     342.8879 deg
Mean motion:   13.17006749 rev/day
Decay rate:        5.1e-07 rev/day^2
Epoch rev:           71490
Checksum:              298

Satellite: MET-2/21
Catalog number: 22782
Epoch time:      06179.81972569
Element set:     545
Inclination:      082.5486 deg
RA of node:       322.2221 deg
Eccentricity:    0.0023292
Arg of perigee:   144.1110 deg
Mean anomaly:     216.1637 deg
Mean motion:   13.83606896 rev/day
Decay rate:        5.3e-07 rev/day^2
Epoch rev:           64765
Checksum:              310

Satellite: OKEAN-4
Catalog number: 23317
Epoch time:      06179.76101992
Element set:     983
Inclination:      082.5408 deg
RA of node:       266.2053 deg
Eccentricity:    0.0021746
Arg of perigee:   341.4130 deg
Mean anomaly:     018.6300 deg
Mean motion:   14.82371815 rev/day
Decay rate:       2.42e-06 rev/day^2
Epoch rev:           63169
Checksum:              286

Satellite: NOAA-14
Catalog number: 23455
Epoch time:      06180.33142064
Element set:     171
Inclination:      099.0367 deg
RA of node:       238.7323 deg
Eccentricity:    0.0009490
Arg of perigee:   022.5841 deg
Mean anomaly:     337.5736 deg
Mean motion:   14.13666964 rev/day
Decay rate:       -4.6e-07 rev/day^2
Epoch rev:           59278
Checksum:              310

Satellite: SICH-1
Catalog number: 23657
Epoch time:      06179.76304306
Element set:     785
Inclination:      082.5280 deg
RA of node:       047.1066 deg
Eccentricity:    0.0023545
Arg of perigee:   329.2150 deg
Mean anomaly:     030.7654 deg
Mean motion:   14.81367883 rev/day
Decay rate:       2.08e-06 rev/day^2
Epoch rev:           58370
Checksum:              303

Satellite: NOAA-15
Catalog number: 25338
Epoch time:      06180.17453161
Element set:     563
Inclination:      098.5142 deg
RA of node:       182.1179 deg
Eccentricity:    0.0010373
Arg of perigee:   345.3951 deg
Mean anomaly:     014.6940 deg
Mean motion:   14.24589154 rev/day
Decay rate:       1.92e-06 rev/day^2
Epoch rev:           42242
Checksum:              289

Satellite: RESURS
Catalog number: 25394
Epoch time:      06179.80695787
Element set:    0428
Inclination:      098.4927 deg
RA of node:       242.3060 deg
Eccentricity:    0.0001992
Arg of perigee:   115.9030 deg
Mean anomaly:     244.2355 deg
Mean motion:   14.24104704 rev/day
Decay rate:       -5.0e-08 rev/day^2
Epoch rev:           41405
Checksum:              289

Satellite: FENGYUN1
Catalog number: 25730
Epoch time:      06179.60290449
Element set:     762
Inclination:      098.6245 deg
RA of node:       171.7181 deg
Eccentricity:    0.0015337
Arg of perigee:   106.8840 deg
Mean anomaly:     253.4012 deg
Mean motion:   14.11813658 rev/day
Decay rate:       2.54e-06 rev/day^2
Epoch rev:           36762
Checksum:              295

Satellite: OKEAN-0
Catalog number: 25860
Epoch time:      06180.63900973
Element set:     786
Inclination:      097.7317 deg
RA of node:       194.3921 deg
Eccentricity:    0.0001980
Arg of perigee:   075.0228 deg
Mean anomaly:     285.1201 deg
Mean motion:   14.73372471 rev/day
Decay rate:        3.5e-07 rev/day^2
Epoch rev:           37358
Checksum:              302

Satellite: NOAA-16
Catalog number: 26536
Epoch time:      06180.11802476
Element set:     936
Inclination:      099.0659 deg
RA of node:       146.8761 deg
Eccentricity:    0.0011468
Arg of perigee:   086.1629 deg
Mean anomaly:     274.0875 deg
Mean motion:   14.12349848 rev/day
Decay rate:        5.7e-07 rev/day^2
Epoch rev:           29726
Checksum:              340

Satellite: NOAA-17
Catalog number: 27453
Epoch time:      06180.32878231
Element set:     955
Inclination:      098.6211 deg
RA of node:       252.3053 deg
Eccentricity:    0.0012359
Arg of perigee:   044.5079 deg
Mean anomaly:     315.7109 deg
Mean motion:   14.23788651 rev/day
Decay rate:       -2.0e-07 rev/day^2
Epoch rev:           20850
Checksum:              293

